Location: LDNL
(36.4545°S, 141.6685°E)
Time: 20:37:39
(UTC+10:00)

Hubble Space Telescope - Visible Passes

Search period start: 31 May 2020 00:00
Search period end: 10 June 2020 00:00
Orbit: 536 x 540 km, 28.5° (Epoch: 30 May)

Date Brightness Start Highest point End Pass type
(mag) Time Alt. Az. Time Alt. Az. Time Alt. Az.
31 May 3.0 05:14:06 19° NNE 05:14:06 19° NNE 05:16:48 10° ENE visible
31 May 2.5 06:50:57 10° WNW 06:54:29 27° N 06:58:01 10° ENE visible
01 Jun 3.1 05:04:13 19° NE 05:04:13 19° NE 05:06:14 10° ENE visible
01 Jun 2.5 06:40:12 10° WNW 06:43:44 27° N 06:47:16 10° ENE visible
02 Jun 3.4 04:54:16 17° NE 04:54:16 17° NE 04:55:36 10° ENE visible
02 Jun 2.5 06:29:36 11° WNW 06:33:00 26° N 06:36:29 10° NE visible
03 Jun 3.7 04:44:16 13° NE 04:44:16 13° NE 04:44:57 10° ENE visible
03 Jun 2.5 06:19:36 14° NW 06:22:14 25° N 06:25:39 10° NE visible
04 Jun 4.0 04:34:14 10° ENE 04:34:14 10° ENE 04:34:16 10° ENE visible
04 Jun 2.5 06:09:35 17° NW 06:11:29 23° N 06:14:48 10° NE visible
05 Jun 2.5 05:59:32 19° NW 06:00:43 21° N 06:03:54 10° NE visible
06 Jun 2.6 05:49:30 19° NNW 05:49:56 19° NNW 05:52:55 10° NNE visible
07 Jun 2.9 05:39:28 17° N 05:39:28 17° N 05:41:52 10° NNE visible
08 Jun 3.2 05:29:27 13° N 05:29:27 13° N 05:30:41 10° NNE visible
